Coffeyville, KS

4:55 AM CDT on September 24, 2017 (GMT -0500)
Coffeyville Municipal

Weather History for KCFV - February, 2013

Change the Weather History Date:

Sunday, February 24, 2013

  Actual Average Record
Temperature  
Mean Temperature 43 °F -  
Max Temperature 60 °F 48 °F 73 °F (2002)
Min Temperature 26 °F 29 °F 5 °F (2003)
Degree Days  
Heating Degree Days 22    
Moisture  
Dew Point 31 °F    
Average Humidity 68    
Maximum Humidity 89    
Minimum Humidity 36    
Precipitation  
Precipitation 0.00 in - - ()
Sea Level Pressure  
Sea Level Pressure 29.91 in    
Wind  
Wind Speed 6 mph (East)    
Max Wind Speed 16 mph    
Max Gust Speed 22 mph    
Visibility 10 miles    
Events      
Averages and records for this station are not official NWS values.
T = Trace of Precipitation, MM = Missing Value Source: NWS Daily Summary

Daily Weather History Graph

Daily Weather History Graph

Search for Another Location

Airport or City:

Trip Planner

Search our weather history database for the weather conditions in past years. The results will help you decide how hot, cold, wet, or windy it might be!

Date:

Astronomy

Feb. 24, 2013 Rise Set
Actual Time 6:59 AM CST 6:11 PM CST
Civil Twilight 6:33 AM CST 6:38 PM CST
Nautical Twilight 6:03 AM CST 7:08 PM CST
Astronomical Twilight 5:33 AM CST 7:38 PM CST
Moon 5:23 PM CST 5:56 AM CST
Length of Visible Light 12h 04m
Length of Day
11h 12m
Waxing Gibbous, 99% of the Moon is Illuminated
Feb 24
Waxing Gibbous
Feb 25
Full
Mar 4
Last Quarter
Mar 11
New
Mar 19
First Quarter

Hourly Weather History & Observations

Time (CST) Temp. Windchill Dew Point Humidity Pressure Visibility Wind Dir Wind Speed Gust Speed Precip Events Conditions
12:52 AM 27.0 °F - 24.1 °F 89% 30.01 in 10.0 mi Calm Calm - N/A   Clear
1:52 AM 28.0 °F 21.7 °F 24.1 °F 85% 29.99 in 10.0 mi East 5.8 mph - N/A   Clear
2:52 AM 28.9 °F 25.2 °F 24.1 °F 82% 29.97 in 10.0 mi NNE 3.5 mph - N/A   Clear
3:52 AM 27.0 °F 23.0 °F 23.0 °F 85% 29.96 in 9.0 mi East 3.5 mph - N/A   Clear
4:52 AM 26.1 °F 20.5 °F 23.0 °F 88% 29.95 in 9.0 mi ENE 4.6 mph - N/A   Clear
5:52 AM 27.0 °F 23.0 °F 23.0 °F 85% 29.95 in 8.0 mi ENE 3.5 mph - N/A   Clear
6:52 AM 27.0 °F 23.0 °F 24.1 °F 89% 29.97 in 8.0 mi NNE 3.5 mph - N/A   Clear
7:52 AM 30.9 °F 26.2 °F 27.0 °F 85% 29.98 in 8.0 mi ENE 4.6 mph - N/A   Clear
8:52 AM 36.0 °F - 28.0 °F 73% 30.00 in 10.0 mi Calm Calm - N/A   Clear
9:52 AM 44.1 °F 39.5 °F 33.1 °F 65% 29.99 in 10.0 mi SSE 8.1 mph - N/A   Clear
10:52 AM 48.9 °F - 34.0 °F 56% 29.97 in 10.0 mi SE 13.8 mph 18.4 mph N/A   Clear
11:52 AM 52.0 °F - 36.0 °F 54% 29.95 in 10.0 mi SSE 10.4 mph 17.3 mph N/A   Clear
12:52 PM 55.9 °F - 36.0 °F 47% 29.91 in 10.0 mi SSE 13.8 mph - N/A   Clear
1:52 PM 57.9 °F - 35.1 °F 42% 29.87 in 10.0 mi SE 12.7 mph 21.9 mph N/A   Clear
2:52 PM 59.0 °F - 36.0 °F 42% 29.83 in 10.0 mi ESE 12.7 mph 21.9 mph N/A   Clear
3:52 PM 60.1 °F - 35.1 °F 39% 29.82 in 10.0 mi SE 16.1 mph 21.9 mph N/A   Clear
4:52 PM 60.1 °F - 33.1 °F 36% 29.80 in 10.0 mi SE 16.1 mph - N/A   Clear
5:52 PM 55.9 °F - 34.0 °F 44% 29.79 in 10.0 mi ESE 11.5 mph - N/A   Clear
6:52 PM 50.0 °F - 33.1 °F 52% 29.83 in 10.0 mi Calm Calm - N/A   Clear
7:52 PM 44.1 °F 40.8 °F 33.1 °F 65% 29.85 in 10.0 mi ENE 5.8 mph - N/A   Clear
8:52 PM 43.0 °F 41.3 °F 35.1 °F 74% 29.88 in 10.0 mi ENE 3.5 mph - N/A   Clear
9:52 PM 43.0 °F 38.2 °F 36.0 °F 76% 29.88 in 10.0 mi ENE 8.1 mph - N/A   Clear
10:52 PM 37.9 °F 34.4 °F 34.0 °F 86% 29.88 in 10.0 mi NNE 4.6 mph - N/A   Clear
11:52 PM 37.0 °F 31.6 °F 33.1 °F 86% 29.87 in 10.0 mi NE 6.9 mph - N/A   Clear